Simultaneous Nadir Overpasses (SNOs) Predictions

Prediction of SNOs between AURA and LANDSAT-8 Satellite Orbit:

Table of predicted SNOs for the next 14.0 days since TLE Epoch: 10/11/2025
Index Date (AURA) Time (AURA) Lat,Lon (AURA) SZA (AURA ) Date (LANDSAT-8) Time (LANDSAT-8) Lat,Lon (LANDSAT-8) SZA (LANDSAT-8 ) Distance(km) Time Diff (sec)
1 10/16/2025 03:59:31 -73.48, -54.97 97.48 10/16/2025 03:58:25 -73.47, -57.54 97.59 81.34 66
2 10/16/2025 04:48:55 73.69, 112.24 82.73 10/16/2025 04:47:47 73.64, 110.48 82.61 55.46 68
3 10/16/2025 05:38:20 -74.03, -80.85 96.95 10/16/2025 05:37:07 -74.04, -81.00 96.96 4.81 73
4 10/16/2025 06:27:41 74.09, 86.69 83.12 10/16/2025 06:26:32 74.06, 86.69 83.08 3.11 69
5 10/16/2025 07:16:59 -74.06,-105.58 96.89 10/16/2025 07:15:59 -74.10,-105.60 96.87 3.69 60
6 10/16/2025 08:06:19 74.07, 62.07 83.13 10/16/2025 08:05:25 74.06, 61.97 83.11 3.04 54
7 10/16/2025 08:55:38 -74.10,-130.32 96.84 10/16/2025 08:54:52 -74.10,-130.31 96.84 0.49 46
8 10/16/2025 09:44:58 74.10, 37.34 83.18 10/16/2025 09:44:17 74.12, 37.38 83.20 2.24 41
9 10/16/2025 10:34:17 -74.13,-155.05 96.78 10/16/2025 10:33:45 -74.10,-155.02 96.81 3.00 32
10 10/16/2025 11:23:36 74.14, 12.60 83.24 10/16/2025 11:23:09 74.12, 12.67 83.23 2.52 27
11 10/16/2025 12:12:54 -74.11,-179.67 96.78 10/16/2025 12:12:37 -74.11,-179.73 96.78 2.07 17
12 10/16/2025 13:02:14 74.12, -12.02 83.25 10/16/2025 13:02:02 74.13, -12.05 83.25 1.33 12
13 10/16/2025 13:51:33 -74.14, 155.60 96.72 10/16/2025 13:51:29 -74.16, 155.67 96.70 3.05 4
14 10/16/2025 14:40:53 74.15, -36.75 83.30 10/16/2025 14:40:55 74.13, -36.76 83.28 2.39 2
15 10/16/2025 15:30:12 -74.18, 130.86 96.66 10/16/2025 15:30:22 -74.17, 130.96 96.67 3.20 10
16 10/16/2025 16:19:31 74.13, -61.37 83.31 10/16/2025 16:19:48 74.13, -61.47 83.31 3.22 17
17 10/16/2025 17:08:50 -74.16, 106.25 96.66 10/16/2025 17:09:15 -74.17, 106.25 96.64 1.19 25
18 10/16/2025 17:58:10 74.17, -86.10 83.37 10/16/2025 17:58:40 74.19, -86.07 83.40 2.70 30
19 10/16/2025 18:47:29 -74.19, 81.51 96.60 10/16/2025 18:48:08 -74.17, 81.53 96.61 2.21 39
20 10/16/2025 19:36:49 74.20,-110.84 83.42 10/16/2025 19:37:33 74.19,-110.78 83.43 2.04 44
21 10/16/2025 20:26:07 -74.17, 56.89 96.59 10/16/2025 20:27:01 -74.18, 56.82 96.58 2.29 54
22 10/16/2025 21:15:27 74.18,-135.46 83.43 10/16/2025 21:16:26 74.19,-135.49 83.45 1.89 59
23 10/16/2025 22:04:46 -74.21, 32.16 96.54 10/16/2025 22:05:54 -74.18, 32.11 96.55 3.37 68
24 10/16/2025 22:54:07 74.27,-160.32 83.54 10/16/2025 22:55:18 74.25,-160.09 83.54 7.17 71
25 10/16/2025 23:43:32 -74.60, 6.55 96.15 10/16/2025 23:44:40 -74.54, 8.25 96.14 50.60 68
26 10/17/2025 00:32:56 74.81, 173.68 84.07 10/17/2025 00:34:01 74.76, 176.45 84.12 81.06 65



Historial Predications of SNOs between AURA and LANDSAT-8
